Change the Weather History Date:

Saturday, November 1, 2014

  Actual Average Record
Temperature  
Mean Temperature 63 °F 74 °F  
Max Temperature 73 °F 84 °F 91 °F (1979)
Min Temperature 53 °F 65 °F 44 °F (1993)
Degree Days  
Heating Degree Days 2 0  
Month to date heating degree days 2 0  
Since 1 July heating degree days 2 2  
Cooling Degree Days 0 10  
Month to date cooling degree days 0 10  
Year to date cooling degree days 3791 3658  
Growing Degree Days 15 (Base 50)    
Moisture  
Dew Point 49 °F    
Average Humidity 60    
Maximum Humidity 87    
Minimum Humidity 40    
Precipitation  
Precipitation 0.00 in 0.08 in 2.22 in (2005)
Month to date precipitation 0.00 0.08  
Year to date precipitation 37.80 52.34  
Sea Level Pressure  
Sea Level Pressure 30.02 in    
Wind  
Wind Speed 12 mph (NNW)    
Max Wind Speed 28 mph    
Max Gust Speed 40 mph    
Visibility 10 miles    
Events      
T = Trace of Precipitation, MM = Missing Value Source: NWS Daily Summary

Daily Weather History Graph

Daily Weather History Graph

Search for Another Location

Airport or City:

Trip Planner

Search our weather history database for the weather conditions in past years. The results will help you decide how hot, cold, wet, or windy it might be!

Date:

Astronomy

Nov. 01, 2014 Rise Set
Actual Time 7:36 AM EDT 6:44 PM EDT
Civil Twilight 7:12 AM EDT 7:08 PM EDT
Nautical Twilight 6:45 AM EDT 7:36 PM EDT
Astronomical Twilight 6:18 AM EDT 8:03 PM EDT
Moon 3:07 PM EDT (11/1) 2:04 AM EDT (11/1)
Length of Visible Light 11h 55m
Length of Day
11h 08m
Waxing Gibbous, 67% of the Moon is Illuminated
Nov 1
Waxing Gibbous
Nov 6
Full
Nov 14
Last Quarter
Nov 22
New
Nov 29
First Quarter

Hourly Weather History & Observations

Time (EDT) Temp. Dew Point Humidity Pressure Visibility Wind Dir Wind Speed Gust Speed Precip Events Conditions
12:53 AM 64.0 °F 55.0 °F 73% 29.94 in 10.0 mi NNW 4.6 mph - N/A   Clear
1:53 AM 64.9 °F 54.0 °F 68% 29.93 in 10.0 mi NNW 9.2 mph - N/A   Clear
2:53 AM 64.0 °F 54.0 °F 70% 29.93 in 10.0 mi North 3.5 mph - N/A   Clear
3:53 AM 61.0 °F 54.0 °F 78% 29.92 in 10.0 mi Calm Calm - N/A   Partly Cloudy
4:53 AM 61.0 °F 55.0 °F 81% 29.92 in 10.0 mi Calm Calm - N/A   Partly Cloudy
5:53 AM 59.0 °F 55.9 °F 90% 29.91 in 10.0 mi Calm Calm - N/A   Clear
6:53 AM 60.1 °F 55.9 °F 86% 29.94 in 10.0 mi Calm Calm - N/A   Clear
7:53 AM 64.0 °F 57.0 °F 78% 29.96 in 10.0 mi NNW 5.8 mph - N/A   Mostly Cloudy
8:53 AM 68.0 °F 55.9 °F 65% 30.00 in 10.0 mi NNW 16.1 mph - N/A   Mostly Cloudy
9:53 AM 68.0 °F 55.0 °F 63% 30.02 in 10.0 mi North 12.7 mph - N/A   Clear
10:53 AM 71.1 °F 55.0 °F 57% 30.03 in 10.0 mi NNW 13.8 mph - N/A   Clear
11:53 AM 71.1 °F 52.0 °F 51% 30.03 in 10.0 mi NW 20.7 mph 31.1 mph N/A   Mostly Cloudy
12:53 PM 73.0 °F 52.0 °F 48% 30.02 in 10.0 mi NW 21.9 mph 29.9 mph N/A   Partly Cloudy
1:53 PM 70.0 °F 51.1 °F 51% 30.02 in 10.0 mi NW 21.9 mph 32.2 mph N/A   Scattered Clouds
2:53 PM 69.1 °F 46.0 °F 44% 30.01 in 10.0 mi NNW 20.7 mph 28.8 mph N/A   Clear
3:53 PM 66.9 °F 42.1 °F 40% 30.01 in 10.0 mi NNW 19.6 mph 26.5 mph N/A   Clear
4:53 PM 66.0 °F 41.0 °F 40% 30.02 in 10.0 mi NNW 20.7 mph - N/A   Clear
5:53 PM 64.0 °F 42.1 °F 45% 30.04 in 10.0 mi NW 18.4 mph 26.5 mph N/A   Clear
6:53 PM 62.1 °F 41.0 °F 46% 30.06 in 10.0 mi NNW 17.3 mph - N/A   Clear
7:53 PM 60.1 °F 39.9 °F 47% 30.09 in 10.0 mi NNW 15.0 mph - N/A   Clear
8:53 PM 59.0 °F 39.0 °F 48% 30.13 in 10.0 mi North 12.7 mph - N/A   Clear
9:53 PM 57.0 °F 41.0 °F 55% 30.16 in 10.0 mi NNW 9.2 mph - N/A   Clear
10:53 PM 57.0 °F 41.0 °F 55% 30.17 in 10.0 mi North 10.4 mph - N/A   Clear
11:53 PM 55.0 °F 42.1 °F 62% 30.18 in 10.0 mi North 13.8 mph - N/A   Clear